Starlink 3546

operational
NORAD ID: 51718 Int'l Des: 2022-016 Owner: SPXS Country: US Constellation: starlink
LEOCIRCULAR

Starlink 3546について

説明を読み込み中...

リアルタイム位置

3D地球を読み込み中...

次回通過

高度履歴

Altitude vs Time

uPlot chart will show altitude changes over time

軌道要素

1 51718U 22016E 25350.29910246 .00018480 00000-0 11117-2 0 9995
2 51718 53.2160 343.1661 0004397 51.3609 308.7777 15.10893416211968
Epoch: Dec 16, 2025 • Age: 19 hours

現在のステータス

高度 551.0 km
速度 7.58 km/s
衛星直下点 -43.31°S, 92.84°E
打ち上げ日 Feb 21, 2022
運用期間 3.8 years
タイプ internet

技術仕様

分類 Payload
質量 297.00 kg
乾燥質量 275.00 kg
総質量 297.00 kg
長さ 0.20 m
直径 2.80 m
スパン 9.00 m
形状 Box + pan
製造者 SPXS
バスタイプ Starlink
フェーズステータス In Orbit
所有者/国 SPXS/US

大規模コンステレーション

Loading constellations...